When you browse on this site, cookies collect data to enhance your experience and personalize the content and advertising you see.
Visit our Privacy Policy to learn more. By continuing to use the site, you agree to this use of cookies and data.
  • In Czech Republic
  • List of Countries
  • For 7 days
  • Water Temperature
  • Weather Map
  • Weather Widgets
  • user-avatar
    Login

    Hourly Weather Socorro

    Today, 13 November, Wednesday

    Time Temperature Precipitation Wind Pressure Humidity
    00:00 +19°C° 0.5 mm 0 mps 660 mmHg 94%
    01:00 +18°C° 0.5 mm 0 mps 660 mmHg 94%
    02:00 +18°C° 0.3 mm 0 mps 660 mmHg 94%
    03:00 +18°C° 0.3 mm 0 mps 660 mmHg 94%
    04:00 +18°C° 0.3 mm 0 mps 660 mmHg 94%
    05:00 +18°C° 0.1 mm 0 mps 660 mmHg 94%
    06:00 +19°C° 0.1 mm 0 mps 661 mmHg 93%
    07:00 +19°C° 0.1 mm 0 mps 662 mmHg 92%
    08:00 +21°C° 0.3 mm 0 mps 662 mmHg 86%
    09:00 +23°C° 0.3 mm 0 mps 663 mmHg 80%
    10:00 +27°C° 0.3 mm 1 mps 663 mmHg 74%
    11:00 +27°C° 1.2 mm 1 mps 662 mmHg 79%
    12:00 +26°C° 1.2 mm 1 mps 661 mmHg 83%
    13:00 +26°C° 1.2 mm 1 mps 661 mmHg 87%
    14:00 +25°C° 1.7 mm 1 mps 660 mmHg 89%
    15:00 +25°C° 1.7 mm 1 mps 660 mmHg 91%
    16:00 +24°C° 1.7 mm 1 mps 659 mmHg 93%
    17:00 +21°C° 3 mm 0 mps 660 mmHg 94%
    18:00 +20°C° 3 mm 0 mps 660 mmHg 96%
    19:00 +20°C° 3 mm 0 mps 661 mmHg 97%
    20:00 +19°C° 4.1 mm 0 mps 661 mmHg 98%
    21:00 +21°C° 4.1 mm 1 mps 661 mmHg 98%
    22:00 +20°C° 4.1 mm 1 mps 662 mmHg 98%
    23:00 +20°C° 1.5 mm 1 mps 662 mmHg 98%

    Tomorrow, 14 November, Thursday

    Time Temperature Precipitation Wind Pressure Humidity
    00:00 +18°C° 1.5 mm 0 mps 661 mmHg 98%
    01:00 +18°C° 1.5 mm 0 mps 661 mmHg 97%
    02:00 +18°C° 0.4 mm 0 mps 661 mmHg 97%
    03:00 +18°C° 0.4 mm 0 mps 661 mmHg 97%
    04:00 +18°C° 0.4 mm 0 mps 661 mmHg 97%
    05:00 +18°C° 0.8 mm 0 mps 661 mmHg 97%
    06:00 +18°C° 0.8 mm 0 mps 662 mmHg 98%
    07:00 +18°C° 0.8 mm 0 mps 662 mmHg 98%
    08:00 +19°C° 0.6 mm 0 mps 663 mmHg 97%
    09:00 +19°C° 0.6 mm 0 mps 663 mmHg 97%
    10:00 +19°C° 0.6 mm 0 mps 664 mmHg 96%
    11:00 +20°C° 0.3 mm 0 mps 663 mmHg 93%
    12:00 +21°C° 0.3 mm 0 mps 662 mmHg 90%
    13:00 +21°C° 0.3 mm 0 mps 662 mmHg 87%
    14:00 +22°C° 0.2 mm 0 mps 661 mmHg 85%
    15:00 +22°C° 0.2 mm 0 mps 661 mmHg 82%
    16:00 +22°C° 0.2 mm 0 mps 661 mmHg 80%
    17:00 +21°C° 0.1 mm 0 mps 661 mmHg 86%
    18:00 +20°C° 0.1 mm 0 mps 661 mmHg 91%
    19:00 +19°C° 0.1 mm 0 mps 661 mmHg 96%
    20:00 +18°C° 0 mm 0 mps 662 mmHg 97%
    21:00 +18°C° 0 mm 0 mps 662 mmHg 97%
    22:00 +18°C° 0 mm 0 mps 662 mmHg 98%
    23:00 +18°C° 0 mm 0 mps 662 mmHg 98%

    Day after tomorrow, 15 November, Friday

    Time Temperature Precipitation Wind Pressure Humidity
    00:00 +18°C° 0 mm 0 mps 662 mmHg 98%
    01:00 +18°C° 0 mm 0 mps 661 mmHg 98%
    02:00 +18°C° 0.1 mm 0 mps 661 mmHg 98%
    03:00 +17°C° 0.1 mm 0 mps 661 mmHg 97%
    04:00 +17°C° 0.1 mm 0 mps 661 mmHg 97%
    05:00 +18°C° 0.2 mm 0 mps 662 mmHg 97%
    06:00 +18°C° 0.2 mm 0 mps 662 mmHg 96%
    07:00 +19°C° 0.2 mm 0 mps 663 mmHg 95%
    08:00 +20°C° 0.1 mm 0 mps 663 mmHg 91%
    09:00 +21°C° 0.1 mm 0 mps 663 mmHg 86%
    10:00 +24°C° 0.1 mm 1 mps 663 mmHg 82%
    11:00 +25°C° 0.4 mm 1 mps 662 mmHg 79%
    12:00 +26°C° 0.4 mm 1 mps 662 mmHg 75%
    13:00 +27°C° 0.4 mm 1 mps 661 mmHg 71%
    14:00 +26°C° 1.1 mm 1 mps 661 mmHg 78%
    15:00 +25°C° 1.1 mm 1 mps 660 mmHg 84%
    16:00 +24°C° 1.1 mm 1 mps 660 mmHg 90%
    17:00 +23°C° 0.6 mm 1 mps 660 mmHg 93%
    18:00 +20°C° 0.6 mm 0 mps 660 mmHg 95%
    19:00 +19°C° 0.6 mm 0 mps 660 mmHg 97%
    20:00 +18°C° 0.3 mm 0 mps 661 mmHg 97%
    21:00 +18°C° 0.3 mm 0 mps 661 mmHg 96%
    22:00 +17°C° 0.3 mm 0 mps 661 mmHg 96%
    23:00 +17°C° 0 mm 0 mps 661 mmHg 96%

    16 November, Saturday

    Time Temperature Precipitation Wind Pressure Humidity
    00:00 +17°C° 0 mm 0 mps 661 mmHg 96%
    01:00 +17°C° 0 mm 0 mps 660 mmHg 96%
    02:00 +17°C° 0 mm 0 mps 660 mmHg 96%
    03:00 +17°C° 0 mm 0 mps 660 mmHg 96%
    04:00 +17°C° 0 mm 0 mps 660 mmHg 96%
    05:00 +17°C° 0 mm 0 mps 660 mmHg 95%
    06:00 +18°C° 0 mm 0 mps 661 mmHg 95%
    07:00 +18°C° 0 mm 0 mps 661 mmHg 94%
    08:00 +21°C° 0.1 mm 0 mps 662 mmHg 86%
    09:00 +23°C° 0.1 mm 0 mps 662 mmHg 77%
    10:00 +25°C° 0.1 mm 0 mps 663 mmHg 69%
    11:00 +27°C° 0.6 mm 1 mps 662 mmHg 71%
    12:00 +27°C° 0.6 mm 1 mps 661 mmHg 74%
    13:00 +26°C° 0.6 mm 2 mps 660 mmHg 77%
    14:00 +26°C° 1.4 mm 1 mps 659 mmHg 82%
    15:00 +25°C° 1.4 mm 1 mps 659 mmHg 87%
    16:00 +24°C° 1.4 mm 1 mps 658 mmHg 92%
    17:00 +23°C° 0.9 mm 1 mps 659 mmHg 94%
    18:00 +22°C° 0.9 mm 1 mps 659 mmHg 95%
    19:00 +19°C° 0.9 mm 0 mps 659 mmHg 97%
    20:00 +18°C° 0.3 mm 0 mps 660 mmHg 97%
    21:00 +18°C° 0.3 mm 0 mps 660 mmHg 96%
    22:00 +18°C° 0.3 mm 0 mps 660 mmHg 96%
    23:00 +18°C° 0.1 mm 0 mps 660 mmHg 96%

    17 November, Sunday

    Time Temperature Precipitation Wind Pressure Humidity
    00:00 +17°C° 0.1 mm 0 mps 660 mmHg 96%
    01:00 +17°C° 0.1 mm 0 mps 659 mmHg 96%
    02:00 +17°C° 0.1 mm 0 mps 659 mmHg 96%
    03:00 +17°C° 0.1 mm 0 mps 659 mmHg 97%
    04:00 +17°C° 0.1 mm 0 mps 659 mmHg 97%
    05:00 +18°C° 0 mm 0 mps 660 mmHg 96%
    06:00 +18°C° 0 mm 0 mps 660 mmHg 95%
    07:00 +18°C° 0 mm 0 mps 661 mmHg 95%
    08:00 +20°C° 0.2 mm 0 mps 661 mmHg 87%
    09:00 +22°C° 0.2 mm 0 mps 662 mmHg 80%
    10:00 +24°C° 0.2 mm 0 mps 662 mmHg 73%
    11:00 +26°C° 0.7 mm 1 mps 661 mmHg 76%
    12:00 +26°C° 0.7 mm 1 mps 661 mmHg 79%
    13:00 +26°C° 0.7 mm 1 mps 660 mmHg 82%
    14:00 +25°C° 0.7 mm 1 mps 659 mmHg 84%
    15:00 +25°C° 0.7 mm 1 mps 659 mmHg 85%
    16:00 +22°C° 0.7 mm 0 mps 658 mmHg 87%
    17:00 +21°C° 0.6 mm 0 mps 659 mmHg 90%
    18:00 +20°C° 0.6 mm 0 mps 659 mmHg 94%
    19:00 +18°C° 0.6 mm 0 mps 659 mmHg 97%
    20:00 +18°C° 0.1 mm 0 mps 660 mmHg 96%
    21:00 +18°C° 0.1 mm 0 mps 660 mmHg 96%
    22:00 +17°C° 0.1 mm 0 mps 660 mmHg 96%
    23:00 +17°C° 0 mm 0 mps 660 mmHg 96%

    18 November, Monday

    Time Temperature Precipitation Wind Pressure Humidity
    00:00 +17°C° 0 mm 0 mps 660 mmHg 96%
    01:00 +16°C° 0 mm 0 mps 660 mmHg 96%
    02:00 +16°C° 0 mm 0 mps 660 mmHg 96%
    03:00 +16°C° 0 mm 0 mps 659 mmHg 96%
    04:00 +16°C° 0 mm 0 mps 659 mmHg 96%
    05:00 +17°C° 0 mm 0 mps 660 mmHg 95%
    06:00 +17°C° 0 mm 0 mps 660 mmHg 94%
    07:00 +18°C° 0 mm 0 mps 661 mmHg 93%
    08:00 +20°C° 0.2 mm 0 mps 662 mmHg 85%
    09:00 +22°C° 0.2 mm 0 mps 662 mmHg 76%
    10:00 +27°C° 0.2 mm 1 mps 663 mmHg 68%
    11:00 +27°C° 0.4 mm 1 mps 662 mmHg 69%
    12:00 +27°C° 0.4 mm 1 mps 661 mmHg 70%
    13:00 +27°C° 0.4 mm 2 mps 661 mmHg 71%
    14:00 +26°C° 0.8 mm 1 mps 660 mmHg 78%
    15:00 +25°C° 0.8 mm 1 mps 660 mmHg 84%
    16:00 +24°C° 0.8 mm 1 mps 659 mmHg 90%
    17:00 +23°C° 0.6 mm 1 mps 659 mmHg 92%
    18:00 +20°C° 0.6 mm 0 mps 660 mmHg 95%
    19:00 +19°C° 0.6 mm 0 mps 660 mmHg 97%
    20:00 +18°C° 0.4 mm 0 mps 660 mmHg 96%
    21:00 +18°C° 0.4 mm 0 mps 661 mmHg 96%
    22:00 +17°C° 0.4 mm 0 mps 661 mmHg 96%
    23:00 +17°C° 0.1 mm 0 mps 661 mmHg 96%
    Show more